GW0543 Weather Reports


time (UTC)temp
F
wind
direction
speed
knots
gust
knots
rain 1hr
in
rain 24hr
in
rain mn
in
humidity
%
barometer
mb
20260506163101 56 0 1.7 7.0 0.00 1.44 0.56 92 1012.7
20260506161557 56 227 0.0 4.3 0.03 1.44 0.56 92 1012.5
20260506160122 56 246 0.0 4.3 0.08 1.44 0.56 93 1012.3
20260506154600 56 0 0.0 0.0 0.11 1.51 0.56 94 1012.3
20260506153054 56 280 2.6 5.2 0.12 1.50 0.55 93 1012.4
20260506151604 55 0 0.0 3.5 0.26 1.47 0.52 93 1012.1
20260506150103 56 0 0.0 2.6 0.44 1.42 0.48 92 1012.4
20260506144552 56 61 0.0 2.6 0.42 1.39 0.44 92 1012.4
20260506143056 56 327 1.7 7.0 0.40 1.37 0.43 90 1011.9
20260506141555 56 65 2.6 7.0 0.25 1.19 0.25 86 1012.2
20260506140055 58 44 4.3 10.4 0.03 0.98 0.03 83 1012.0
20260506134556 58 85 4.3 10.4 0.02 1.04 0.02 82 1011.9
20260506133107 59 125 1.7 7.8 0.02 1.04 0.02 83 1012.0
20260506131614 60 166 1.7 10.4 0.00 1.02 0.00 77 1012.0
20260506130108 62 124 1.7 5.2 0.00 1.02 0.00 73 1012.3
20260506124556 62 147 2.6 7.8 0.00 1.02 0.00 72 1012.0
20260506123059 63 171 4.3 9.6 0.00 1.02 0.00 69 1012.0
20260506121609 65 170 4.3 10.4 0.00 1.02 0.00 66 1011.8
20260506120111 67 198 1.7 8.7 0.00 1.02 0.00 62 1011.7
20260506114558 69 142 2.6 8.7 0.00 1.02 0.00 61 1011.8
20260506113057 66 181 0.0 3.5 0.00 1.02 0.00 61 1011.8
20260506111553 65 0 0.0 1.7 0.00 1.02 0.00 63 1012.1
20260506110113 64 314 1.7 5.2 0.00 1.02 0.00 63 1012.3
20260506104611 65 319 0.0 5.2 0.00 1.02 0.00 64 1012.4
20260506103053 65 150 0.0 6.1 0.00 1.02 0.00 65 1012.6
20260506101553 63 0 0.0 0.9 0.00 1.02 0.00 68 1012.8
20260506100113 62 0 0.0 1.7 0.00 1.02 0.00 66 1012.8
20260506094600 61 49 0.9 2.6 0.00 1.02 0.00 66 1012.9
20260506093101 61 49 0.0 2.6 0.00 1.02 0.00 65 1013.0
20260506091556 61 0 0.9 3.5 0.00 1.02 0.00 62 1012.8
20260506090053 61 80 1.7 4.3 0.00 1.02 0.00 62 1012.7
20260506084631 62 0 1.7 6.1 0.00 1.02 0.00 61 1012.6
20260506083055 63 63 2.6 7.0 0.00 1.02 0.00 62 1012.4
20260506081558 62 48 0.0 3.5 0.00 1.02 0.00 66 1012.4
20260506073055 60 312 1.7 4.3 0.00 1.02 0.00 68 1012.3
20260506071558 58 58 0.9 4.3 0.00 1.02 0.00 72 1012.3
20260506061556 55 0 0.0 0.9 0.00 1.02 0.00 78 1012.1
20260506044552 53 54 2.6 4.3 0.00 1.02 0.00 82 1011.4
20260506043053 0 0 0.0 1.7 0.00 1.02 0.00 82 1011.2
20260506041604 0 31 0.9 0.0 0.00 1.02 0.00 1011.1
20260506040059 53 0 0.0 3.5 0.00 1.02 0.00 82 1011.1
20260506034558 53 62 0.9 3.5 0.00 1.02 0.00 81 1011.0
20260506033054 53 5 0.9 7.0 0.00 1.02 0.00 81 1011.0
20260506031557 53 355 0.9 4.3 0.00 1.02 0.00 81 1011.0
20260506030052 53 349 1.7 6.1 0.00 1.02 0.00 82 1010.9
20260506024605 52 5 1.7 5.2 0.00 1.02 0.00 82 1010.9
20260506023110 52 17 2.6 6.1 0.00 1.02 0.00 81 1010.7
20260506021622 53 49 2.6 8.7 0.00 1.02 0.00 80 1010.8
20260506020100 53 15 2.6 7.8 0.00 1.02 0.00 81 1010.8
20260506014610 53 53 1.7 7.0 0.00 1.02 0.00 80 1010.8
20260506013109 53 331 1.7 7.8 0.00 1.02 0.00 79 1010.7
20260506011614 53 18 1.7 7.8 0.00 1.02 0.00 80 1010.7
20260506010059 53 345 2.6 7.0 0.00 1.02 0.00 82 1010.8
20260506004556 53 338 3.5 7.8 0.00 1.02 0.00 82 1010.9
20260506003058 52 18 3.5 9.6 0.00 1.02 0.00 82 1011.1
20260506001557 52 13 2.6 9.6 0.00 1.02 0.00 83 1011.2
20260506000057 52 360 2.6 7.0 0.00 1.02 0.00 84 1011.1
20260505234558 52 333 3.5 8.7 0.00 1.07 0.00 84 1011.5
20260505233053 53 261 2.6 7.0 0.00 1.07 0.00 84 1011.7
20260505231608 52 348 1.7 7.0 0.00 1.07 0.00 84 1011.7
20260505230053 53 12 3.5 11.3 0.00 1.07 0.00 84 1011.6
20260505224555 53 231 5.2 12.2 0.00 1.07 0.00 84 1011.3
20260505223058 53 313 7.8 13.0 0.00 1.07 0.00 84 1011.5
20260505221552 52 30 5.2 14.8 0.00 1.07 0.00 85 1011.6
20260505220100 52 36 6.1 13.9 0.00 1.07 0.00 86 1011.8
20260505214559 52 42 7.0 14.8 0.00 1.07 1.07 86 1011.9
20260505213056 52 73 7.0 9.6 0.00 1.07 1.07 87 1011.9
20260505211553 52 60 6.1 11.3 0.00 1.07 1.07 87 1012.2
20260505210058 52 85 7.0 14.8 0.00 1.07 1.07 87 1011.8
20260505204600 52 344 6.1 12.2 0.02 1.07 1.07 88 1011.8
20260505203110 52 86 5.2 13.0 0.03 1.07 1.07 88 1011.8
20260505201604 52 28 5.2 10.4 0.04 1.07 1.07 88 1011.7
20260505200055 52 346 5.2 15.6 0.15 1.07 1.07 86 1011.7
20260505194557 52 74 6.1 12.2 0.13 1.05 1.04 88 1011.8
20260505193056 52 9 3.5 10.4 0.12 1.04 1.03 91 1012.7
20260505191610 52 342 1.7 8.7 0.11 1.03 1.02 92 1012.2
20260505184552 52 48 7.8 14.8 0.46 0.73 0.72 89 1011.5
20260505183056 53 78 7.8 19.1 0.36 0.58 0.57 88 1011.3
20260505181556 53 109 12.2 20.0 0.18 0.40 0.39 87 1011.3
20260505174552 58 69 1.7 5.2 0.05 0.26 0.25 91 1010.4
20260505173058 59 87 3.5 7.8 0.00 0.22 0.21 89 1010.2
20260505171556 59 55 2.6 4.3 0.00 0.21 0.20 89 1010.3
20260505170109 59 250 1.7 4.3 0.00 0.21 0.20 90 1010.5
20260505164555 60 0 0.0 2.6 0.00 0.24 0.20 89 1010.3